This demonstration page uses our WeatherBlox Daily Observations layout. Learn more.

Left ArrowRight Arrow

41.12389, -100.76542

Hourly Observations for May 8, 2017

Temp ( °F °C ) Dew Point ( °F °C ) Humidity (%) Winds ( mph kmh ) Pressure ( in mb ) Visibility ( mi km ) Precip ( " mm )
12:53 am 00:53 Clear 68 20 50 10 53 53 WSW 10 17 29.74 1007 10 16 0.00 0.00
1:53 am 01:53 Mostly Clear 67 19.4 51 10.6 57 57 SW 5 7 29.71 1006 10 16 0.00 0.00
2:53 am 02:53 Clear 60 15.6 53 11.7 78 78 NW 6 9 29.73 1007 10 16 0.00 0.00
3:53 am 03:53 Clear 64 17.8 52 11.1 65 65 Calm 29.75 1007 10 16 0.00 0.00
4:53 am 04:53 Clear 61 16.1 53 11.7 75 75 Calm 29.72 1007 10 16 0.00 0.00
5:53 am 05:53 Clear 57 13.9 52 11.1 83 83 SSW 6 9 29.76 1008 10 16 0.00 0.00
6:53 am 06:53 Sunny 54 12.2 51 10.6 90 90 Calm 29.79 1009 10 16 0.00 0.00
7:53 am 07:53 Mostly Sunny 59 15 55 12.8 87 87 Calm 29.81 1009 10 16 0.00 0.00
8:53 am 08:53 Cloudy 62 16.7 55 12.8 78 78 SSE 6 9 29.83 1010 10 16 0.00 0.00
9:53 am 09:53 Sunny 72 22.2 54 12.2 53 53 NW 3 6 29.82 1010 10 16 0.00 0.00
10:53 am 10:53 Sunny 77 25 53 11.7 43 43 N 13 20 29.84 1011 10 16 0.00 0.00
11:53 am 11:53 Sunny 79 26.1 57 13.9 47 47 N 10 17 29.85 1011 10 16 0.00 0.00
12:53 pm 12:53 Sunny 79 26.1 55 12.8 44 44 N 12 19 29.85 1011 10 16 0.00 0.00
1:53 pm 13:53 Sunny 81 27.2 54 12.2 39 39 NE 10 17 29.85 1011 10 16 0.00 0.00
2:53 pm 14:53 Sunny 83 28.3 55 12.8 38 38 NNE 7 11 29.86 1011 10 16 0.00 0.00
3:53 pm 15:53 Mostly Sunny 83 28.3 56 13.3 40 40 NNE 8 13 29.85 1011 10 16 0.00 0.00
4:53 pm 16:53 Sunny 82 27.8 55 12.8 40 40 NNE 17 28 29.85 1011 10 16 0.00 0.00
5:53 pm 17:53 Sunny 81 27.2 55 12.8 41 41 NE 16 26 29.83 1010 10 16 0.00 0.00
6:53 pm 18:53 Sunny 77 25 54 12.2 45 45 NE 14 22 29.86 1011 10 16 0.00 0.00
7:53 pm 19:53 Sunny 73 22.8 53 11.7 50 50 NNE 13 20 29.87 1012 10 16 0.00 0.00
8:53 pm 20:53 Clear 69 20.6 52 11.1 55 55 NNE 14 22 29.89 1012 10 16 0.00 0.00
9:53 pm 21:53 Clear 66 18.9 51 10.6 59 59 NNE 15 24 29.91 1013 10 16 0.00 0.00
10:53 pm 22:53 Clear 63 17.2 50 10 63 63 NE 14 22 29.91 1013 10 16 0.00 0.00
11:53 pm 23:53 Clear 62 16.7 46 7.8 56 56 ENE 8 13 29.94 1014 10 16 0.00 0.00

Powered by AerisWeather